Regional Weather Roundup
Issued by NWS

Home | Current Version | Previous Version | Text Only | Print | Product List | Glossary On
Versions: 1 2 3 4 5 6 7 8 9 10 11 12 13 14 15 16 17 18 19 20 21 22 23 24 25 26 27 28 29 30 31 32 33 34 35 36 37 38 39 40 41 42 43 44 45 46 47 48 49 50
000
ASUS44 KOUN 260610
RWROK

WEATHER ROUNDUP FOR OKLAHOMA
NATIONAL WEATHER SERVICE NORMAN OK
100 AM CDT THU APR 26 2018

NOTE: "FAIR" INDICATES FEW OR NO CLOUDS BELOW 12,000 FEET WITH NO
      SIGNIFICANT WEATHER AND/OR OBSTRUCTIONS TO VISIBILITY.

OKZ001>007-009>012-014-015-017-260700-
NORTHWEST OKLAHOMA AND THE PANHANDLE

CITY           SKY/WX    TMP DP  RH WIND       PRES   REMARKS
GAGE           CLEAR     38  36  92 SW3       30.08F
6HR MIN TEMP:  38; 6HR MAX TEMP:  57;

GUYMON         CLEAR     39  35  86 SW9       30.07F WCI  33
ENID/WOODRING  CLEAR     37  37 100 NW3       30.06F
$$

OKZ016-021>023-033>039-044-045-260700-
SOUTHWEST OKLAHOMA

CITY           SKY/WX    TMP DP  RH WIND       PRES   REMARKS
LAWTON/REGL    CLEAR     43  42  97 W3        30.09F
6HR MIN TEMP:  42; 6HR MAX TEMP:  59;

LAWTON/FT SILL CLEAR     45  44  94 W3        30.07F
FREDERICK      CLEAR     45  40  82 CALM      30.07F
CLINTON        CLEAR     42  39  89 SW3       30.09F
HOBART         CLEAR     45  40  82 CALM      30.09F
ALTUS AFB      CLEAR     45  40  83 CALM      30.09F
$$

OKZ018>020-024>031-260700-
CENTRAL OKLAHOMA

CITY           SKY/WX    TMP DP  RH WIND       PRES   REMARKS
OKLAHOMA CITY  CLEAR     44  40  85 N5        30.06F
6HR MIN TEMP:  44; 6HR MAX TEMP:  52;

OKC/WILEY POST CLEAR     46  42  86 N6        30.07F
OKC/TINKER AFB CLEAR     44  41  89 N9        30.06F
STILLWATER     CLEAR     43  40  89 NW6       30.05F
GUTHRIE        CLEAR     43  41  93 W5        30.07F
$$

OKZ008-013-054>072-260700-
NORTHEAST OKLAHOMA

CITY           SKY/WX    TMP DP  RH WIND       PRES   REMARKS
TULSA          CLOUDY    50  46  86 NW10      30.02S
6HR MIN TEMP:  49; 6HR MAX TEMP:  51; 6HR PCP:  0.02;

TULSA/JONES    CLOUDY    50  45  83 VRB5      30.04S
PONCA CITY     CLEAR     44  40  85 W3        30.06F
BARTLESVILLE   CLOUDY    49  46  90 CALM      30.05R
MUSKOGEE       CLOUDY    50  49  96 NW10      30.02F
$$

OKZ032-040>043-046>053-073>077-260700-
SOUTH CENTRAL/SOUTHEAST OKLAHOMA

CITY           SKY/WX    TMP DP  RH WIND       PRES   REMARKS
ARDMORE/DWNTWN CLEAR     45  41  87 CALM      30.07F
MCALESTER      CLOUDY    50  46  86 NW9       30.04S
$$




USA.gov is the U.S. government's official web portal to all federal, state and local government web resources and services.